User: anonymous   Login
Location: Unspecified
(43.3830°N, 0.0000°E)
Time: 23:49:29
(UTC+00:00)
Language:

deb Explorer IX - Orbit

View from above orbital plane
View from above orbital plane
View from above satellite
View from above satellite

Ground track
Ground track

The orbit data is extracted from the following two-line orbital elements,

1    85U 61004C   20275.15389906 +.00000760 +00000-0 +17853-3 0  9991
2    85 038.7705 201.6406 0393257 125.4641 238.3469 14.21081729946139
Epoch (UTC): 01 October 2020 03:41:36
Eccentricity: 0.0393257
inclination: 38.7705°
perigee height: 538 km
apogee height: 1105 km
right ascension of ascending node: 201.6406°
argument of perigee: 125.4641°
revolutions per day: 14.21081729
mean anomaly at epoch: 238.3469°
orbit number at epoch: 94613

The dashed part of the orbit path shows where the satellite is in the earth's shadow,  

DLR